User: anonymous   Login
Location: Unspecified
(0.0000°N, 0.0000°E)
Time: 11:31:15
(UTC+02:00)
Language:

Cosmos 1538 Rocket - Orbit

View from above orbital plane
View from above orbital plane
View from above satellite
View from above satellite

Ground track
Ground track

The orbit data is extracted from the following two-line orbital elements,

1 14760U 84019B   18115.85055973 -.00000014  00000-0  42077-5 0  9999
2 14760  74.0423 268.2683 0027213  49.8833 310.4698 14.35839791788458
Epoch (UTC): 25 April 2018 20:24:48
Eccentricity: 0.0027213
inclination: 74.0423°
perigee height: 753 km
apogee height: 792 km
right ascension of ascending node: 268.2683°
argument of perigee: 49.8833°
revolutions per day: 14.35839791
mean anomaly at epoch: 310.4698°
orbit number at epoch: 78845

The dashed part of the orbit path shows where the satellite is in the earth's shadow,  

DLR